Regional Weather Roundup
Issued by NWS

Home | Current Version | Previous Version | Text Only | Print | Product List | Glossary On
Versions: 1 2 3 4 5 6 7 8 9 10 11 12 13 14 15 16 17 18 19 20 21 22 23 24 25 26 27 28 29 30 31 32 33 34 35 36 37 38 39 40 41 42 43 44 45 46 47 48 49 50
000
ASPQ40 PGUM 230012
RWRPQ
WEATHER ROUNDUP FOR THE MARIANAS AND MICRONESIA
NATIONAL WEATHER SERVICE TIYAN GU
1000 AM CHST WED JUL 23 2014

GUZ001>004-230100-
MARIANA ISLANDS-

CITY           SKY/WX    TMP DP  RH WIND       PRES   REMARKS
GUAM AIRPORT   MOSUNNY   82  79  89 E8        29.83F HX  93
ANDERSEN AFB   SUNNY     82  79  89 E10       29.83F HX  93
ROTA AIRPORT   MOSUNNY   84  79  84 E13       29.85S HX  96
TINIAN AP      MOSUNNY   84  77  79 E9        29.82R HX  94
SAIPAN AP      MOSUNNY   88  79  74 E10       29.83S HX 102

$$

PMZ161-230100-
REPUBLIC OF PALAU-

CITY           SKY/WX    TMP DP  RH WIND       PRES   REMARKS
KOROR AP       PTSUNNY   84  81  89 W9        29.85R HX  98
KOROR WSO      CLOUDY    86  79  79 NW12      29.85R HX  99

$$

PMZ171>174-230100-
FEDERATED STATES OF MICRONESIA-

CITY           SKY/WX    TMP DP  RH WIND       PRES   REMARKS
YAP AIRPORT    CLOUDY    86  77  74 NW14      29.82F HX  97
CHUUK AP       CLOUDY    86  81  84 E8        29.75R HX 102
POHNPEI AP     CLOUDY    81  77  89 S5        29.77F
POHNPEI WSO    CLOUDY    82  75  78 SE2       29.81R
KOSRAE AP      NOT AVBL

$$

PMZ181-230100-
REPUBLIC OF THE MARSHALL ISLANDS-

CITY           SKY/WX    TMP DP  RH WIND       PRES   REMARKS
KWAJALEIN AP   PTSUNNY   84  75  74 E3        29.78F HX  92
MAJURO AP      MOSUNNY   86  77  74 SE8       29.79F HX  97
MAJURO WSO     MOSUNNY   86  75  70 SE7       29.79R HX  95

$$




USA.gov is the U.S. government's official web portal to all federal, state and local government web resources and services.